UAL661 KBOS-KSFO

Flight info

Callsign UAL661
Flight time N/A
Altitude 38000
Route HYLND7 HYLND DCT NOVON DCT SSM/N0488F400 DCT DLH DCT FAR DCT KP09Y DCT BIL DCT KU90O DCT REO DCT HOLLR DCT LEGGS BDEGA4
Aircraft B772/H-SDE2E3FGHIJ5LORVWXY/LB1D1

Departure

Time 2026-05-08 06:28
Airport Boston Logan International Airport (KBOS)

Arrival

Time N/A
Airport San Francisco International Airport (KSFO)
Time Latitude Longitude Altitude Speed Heading
2026-05-08 05:54 42.37047 -71.01790 30 ft 0 kts 207°
2026-05-08 05:55 42.37045 -71.01791 30 ft 0 kts 207°
2026-05-08 06:12 42.37052 -71.01786 30 ft 4 kts 207°
2026-05-08 06:12 42.37076 -71.01769 29 ft 4 kts 207°
2026-05-08 06:13 42.37095 -71.01756 28 ft 4 kts 202°
2026-05-08 06:13 42.37118 -71.01749 29 ft 4 kts 155°
2026-05-08 06:13 42.37135 -71.01770 28 ft 4 kts 125°
2026-05-08 06:13 42.37150 -71.01799 28 ft 3 kts 124°
2026-05-08 06:14 42.37151 -71.01802 28 ft 0 kts 123°
2026-05-08 06:16 42.37150 -71.01799 28 ft 2 kts 123°
2026-05-08 06:16 42.37130 -71.01759 27 ft 7 kts 124°
2026-05-08 06:16 42.37102 -71.01703 30 ft 7 kts 124°
2026-05-08 06:17 42.37035 -71.01605 30 ft 7 kts 135°
2026-05-08 06:17 42.37000 -71.01557 30 ft 7 kts 135°
2026-05-08 06:17 42.36965 -71.01509 30 ft 7 kts 131°
2026-05-08 06:18 42.36932 -71.01460 30 ft 7 kts 135°
2026-05-08 06:18 42.36897 -71.01413 30 ft 7 kts 135°
2026-05-08 06:18 42.36862 -71.01366 30 ft 7 kts 135°
2026-05-08 06:18 42.36818 -71.01308 28 ft 10 kts 135°
2026-05-08 06:19 42.36756 -71.01246 30 ft 12 kts 162°
2026-05-08 06:19 42.36675 -71.01257 30 ft 12 kts 195°
2026-05-08 06:19 42.36594 -71.01287 30 ft 12 kts 198°
2026-05-08 06:19 42.36518 -71.01335 30 ft 12 kts 207°
2026-05-08 06:20 42.36442 -71.01380 30 ft 12 kts 200°
2026-05-08 06:20 42.36368 -71.01385 30 ft 11 kts 134°
2026-05-08 06:20 42.36326 -71.01293 30 ft 11 kts 122°
2026-05-08 06:20 42.36283 -71.01202 30 ft 11 kts 122°
2026-05-08 06:21 42.36246 -71.01106 30 ft 12 kts 114°
2026-05-08 06:21 42.36214 -71.01010 30 ft 12 kts 114°
2026-05-08 06:21 42.36182 -71.00912 30 ft 12 kts 114°
2026-05-08 06:21 42.36149 -71.00813 30 ft 12 kts 114°
2026-05-08 06:22 42.36118 -71.00709 31 ft 13 kts 108°
2026-05-08 06:22 42.36084 -71.00575 30 ft 17 kts 109°
2026-05-08 06:22 42.36041 -71.00409 30 ft 20 kts 109°
2026-05-08 06:22 42.35994 -71.00222 30 ft 21 kts 108°
2026-05-08 06:23 42.35928 -71.00044 30 ft 21 kts 134°
2026-05-08 06:23 42.35828 -70.99912 30 ft 20 kts 135°
2026-05-08 06:23 42.35730 -70.99780 30 ft 20 kts 135°
2026-05-08 06:23 42.35632 -70.99649 30 ft 17 kts 135°
2026-05-08 06:24 42.35551 -70.99540 30 ft 17 kts 135°
2026-05-08 06:24 42.35486 -70.99432 30 ft 13 kts 102°
2026-05-08 06:24 42.35489 -70.99390 30 ft 0 kts 72°
2026-05-08 06:25 42.35491 -70.99379 30 ft 6 kts 72°
2026-05-08 06:25 42.35513 -70.99279 30 ft 11 kts 67°
2026-05-08 06:25 42.35546 -70.99275 30 ft 5 kts 328°
2026-05-08 06:26 42.35558 -70.99290 30 ft 0 kts 315°
2026-05-08 06:27 42.35625 -70.99381 30 ft 34 kts 315°
2026-05-08 06:28 42.35967 -70.99840 30 ft 104 kts 316°
2026-05-08 06:28 42.36642 -71.00741 42 ft 165 kts 315°
2026-05-08 06:28 42.37515 -71.01885 649 ft 180 kts 315°
2026-05-08 06:28 42.38408 -71.03033 1823 ft 170 kts 313°
2026-05-08 06:29 42.39055 -71.04335 2536 ft 172 kts 303°
2026-05-08 06:29 42.39678 -71.05840 2742 ft 194 kts 301°
2026-05-08 06:29 42.40350 -71.07484 2882 ft 218 kts 301°
2026-05-08 06:29 42.41148 -71.09329 3081 ft 233 kts 310°
2026-05-08 06:30 42.42496 -71.10572 3513 ft 240 kts 338°
2026-05-08 06:30 42.44080 -71.11390 4055 ft 246 kts 336°
2026-05-08 06:30 42.45675 -71.12262 4748 ft 248 kts 336°
2026-05-08 06:30 42.47252 -71.13126 5462 ft 249 kts 335°
2026-05-08 06:31 42.48863 -71.14007 6207 ft 250 kts 335°
2026-05-08 06:31 42.50475 -71.14887 6902 ft 250 kts 335°
2026-05-08 06:31 42.52112 -71.15741 7537 ft 254 kts 336°
2026-05-08 06:31 42.53799 -71.16511 8210 ft 257 kts 337°
2026-05-08 06:32 42.55508 -71.17269 8875 ft 260 kts 337°
2026-05-08 06:32 42.57212 -71.18028 9572 ft 262 kts 336°
2026-05-08 06:32 42.58955 -71.18809 10192 ft 267 kts 336°
2026-05-08 06:32 42.60779 -71.19636 10440 ft 288 kts 336°
2026-05-08 06:33 42.62758 -71.20538 10615 ft 312 kts 336°
2026-05-08 06:33 42.64896 -71.21509 10873 ft 334 kts 337°
2026-05-08 06:33 42.67142 -71.22523 11483 ft 346 kts 336°
2026-05-08 06:33 42.69454 -71.23569 12224 ft 355 kts 336°
2026-05-08 06:34 42.71830 -71.24646 13051 ft 363 kts 336°
2026-05-08 06:34 42.74252 -71.25748 13865 ft 370 kts 336°
2026-05-08 06:34 42.76564 -71.27173 14397 ft 364 kts 319°
2026-05-08 06:34 42.78295 -71.29646 15124 ft 360 kts 299°
2026-05-08 06:35 42.79398 -71.32657 16007 ft 354 kts 285°
2026-05-08 06:35 42.80170 -71.35843 16828 ft 356 kts 283°
2026-05-08 06:35 42.80904 -71.39075 17634 ft 360 kts 282°
2026-05-08 06:35 42.81633 -71.42352 18430 ft 363 kts 282°
2026-05-08 06:36 42.82367 -71.45649 19152 ft 365 kts 281°
2026-05-08 06:36 42.83108 -71.48960 19865 ft 368 kts 281°
2026-05-08 06:36 42.83859 -71.52288 20577 ft 370 kts 280°
2026-05-08 06:36 42.84620 -71.55643 21281 ft 373 kts 279°
2026-05-08 06:37 42.85390 -71.59035 21932 ft 378 kts 279°
2026-05-08 06:37 42.86173 -71.62473 22578 ft 381 kts 279°
2026-05-08 06:37 42.86964 -71.65940 23320 ft 383 kts 278°
2026-05-08 06:37 42.87760 -71.69419 23887 ft 387 kts 278°
2026-05-08 06:38 42.88563 -71.72942 24434 ft 390 kts 278°
2026-05-08 06:38 42.89370 -71.76482 24985 ft 393 kts 278°
2026-05-08 06:38 42.90182 -71.80052 25495 ft 395 kts 278°
2026-05-08 06:38 42.90998 -71.83645 26008 ft 398 kts 278°
2026-05-08 06:39 42.91820 -71.87269 26499 ft 401 kts 278°
2026-05-08 06:39 42.92635 -71.90872 26963 ft 404 kts 278°
2026-05-08 06:39 42.93467 -71.94566 27288 ft 411 kts 279°
2026-05-08 06:39 42.94311 -71.98319 27651 ft 416 kts 279°
2026-05-08 06:40 42.95165 -72.02102 28107 ft 418 kts 279°
2026-05-08 06:40 42.96023 -72.05906 28523 ft 420 kts 279°
2026-05-08 06:40 42.96885 -72.09741 28898 ft 424 kts 279°
2026-05-08 06:40 42.97749 -72.13594 29266 ft 426 kts 279°
2026-05-08 06:41 42.98620 -72.17483 29599 ft 429 kts 279°
2026-05-08 06:41 42.99493 -72.21395 29880 ft 433 kts 279°
2026-05-08 06:41 43.00373 -72.25346 30131 ft 435 kts 279°
2026-05-08 06:41 43.01256 -72.29321 30315 ft 440 kts 281°
2026-05-08 06:42 43.02146 -72.33328 30545 ft 442 kts 281°
2026-05-08 06:42 43.03038 -72.37343 30877 ft 441 kts 281°
2026-05-08 06:42 43.03925 -72.41340 31268 ft 439 kts 281°
2026-05-08 06:42 43.04511 -72.43986 31488 ft 439 kts 281°
2026-05-08 06:43 43.05690 -72.49324 31897 ft 439 kts 281°
2026-05-08 06:43 43.06569 -72.53322 32205 ft 439 kts 281°
2026-05-08 06:43 43.07150 -72.55966 32422 ft 438 kts 281°
2026-05-08 06:43 43.08026 -72.59959 32745 ft 438 kts 281°
2026-05-08 06:44 43.08895 -72.63930 33013 ft 441 kts 281°
2026-05-08 06:44 43.09773 -72.67957 33244 ft 442 kts 281°
2026-05-08 06:44 43.10651 -72.71984 33614 ft 441 kts 281°
2026-05-08 06:44 43.11524 -72.75989 33979 ft 439 kts 281°
2026-05-08 06:45 43.12395 -72.79994 34245 ft 439 kts 281°
2026-05-08 06:45 43.13262 -72.83993 34495 ft 438 kts 281°
2026-05-08 06:45 43.14128 -72.87997 34748 ft 438 kts 281°
2026-05-08 06:45 43.14992 -72.92001 34987 ft 438 kts 281°
2026-05-08 06:46 43.15849 -72.95978 35250 ft 438 kts 282°
2026-05-08 06:46 43.16712 -72.99992 35376 ft 441 kts 282°
2026-05-08 06:46 43.17578 -73.04030 35623 ft 441 kts 282°
2026-05-08 06:46 43.18440 -73.08047 35923 ft 439 kts 282°
2026-05-08 06:47 43.19297 -73.12048 36207 ft 438 kts 281°
2026-05-08 06:47 43.20153 -73.16056 36408 ft 438 kts 281°
2026-05-08 06:47 43.21008 -73.20066 36615 ft 438 kts 281°
2026-05-08 06:47 43.21860 -73.24070 36850 ft 438 kts 281°
2026-05-08 06:48 43.22699 -73.28020 37091 ft 437 kts 281°
2026-05-08 06:48 43.23546 -73.32018 37285 ft 438 kts 282°
2026-05-08 06:48 43.25252 -73.40105 37494 ft 442 kts 282°
2026-05-08 06:49 43.26101 -73.44136 37751 ft 441 kts 281°
2026-05-08 06:49 43.26954 -73.48190 37826 ft 443 kts 281°
2026-05-08 06:49 43.28655 -73.56300 37881 ft 442 kts 281°
2026-05-08 06:50 43.30346 -73.64392 37895 ft 440 kts 281°
2026-05-08 06:50 43.32027 -73.72474 37902 ft 440 kts 282°
2026-05-08 06:51 43.33701 -73.80555 37906 ft 440 kts 282°
2026-05-08 06:51 43.35373 -73.88664 37899 ft 441 kts 282°
2026-05-08 06:52 43.37040 -73.96770 37904 ft 441 kts 282°
2026-05-08 06:52 43.38705 -74.04899 37916 ft 442 kts 282°
2026-05-08 06:53 43.40368 -74.13060 37919 ft 444 kts 282°
2026-05-08 06:53 43.42029 -74.21240 37918 ft 445 kts 282°
2026-05-08 06:54 43.43687 -74.29439 37918 ft 445 kts 282°
2026-05-08 06:54 43.45338 -74.37632 37947 ft 446 kts 282°
2026-05-08 06:55 43.46974 -74.45785 37923 ft 446 kts 282°
2026-05-08 06:55 43.48620 -74.54025 37918 ft 446 kts 282°
2026-05-08 06:56 43.50259 -74.62260 37928 ft 445 kts 282°
2026-05-08 06:56 43.51873 -74.70408 37929 ft 445 kts 282°
2026-05-08 06:57 43.53500 -74.78651 37921 ft 446 kts 282°
2026-05-08 06:57 43.55119 -74.86891 37927 ft 445 kts 282°
2026-05-08 06:58 43.56575 -74.94330 37921 ft 445 kts 282°
2026-05-08 06:58 43.58180 -75.02567 37923 ft 445 kts 282°
2026-05-08 06:59 43.59779 -75.10806 37931 ft 444 kts 282°
2026-05-08 06:59 43.61372 -75.19045 37920 ft 444 kts 282°
2026-05-08 07:00 43.62957 -75.27279 37918 ft 443 kts 282°
2026-05-08 07:00 43.64532 -75.35500 37918 ft 443 kts 282°
2026-05-08 07:01 43.66102 -75.43724 37917 ft 442 kts 282°
2026-05-08 07:01 43.67660 -75.51927 37908 ft 442 kts 282°
2026-05-08 07:02 43.69209 -75.60110 37906 ft 441 kts 282°
2026-05-08 07:02 43.70756 -75.68325 37912 ft 441 kts 282°
2026-05-08 07:03 43.72295 -75.76530 37928 ft 441 kts 282°
2026-05-08 07:03 43.73832 -75.84756 37911 ft 442 kts 282°
2026-05-08 07:04 43.75352 -75.92933 37914 ft 442 kts 282°
2026-05-08 07:04 43.76879 -76.01181 37918 ft 442 kts 282°
2026-05-08 07:05 43.78399 -76.09424 37911 ft 442 kts 282°
2026-05-08 07:05 43.79913 -76.17675 37920 ft 442 kts 282°
2026-05-08 07:06 43.81421 -76.25931 37910 ft 442 kts 282°
2026-05-08 07:06 43.82923 -76.34189 37915 ft 442 kts 282°
2026-05-08 07:07 43.84418 -76.42442 37917 ft 442 kts 282°
2026-05-08 07:07 43.85908 -76.50701 37940 ft 442 kts 282°
2026-05-08 07:08 43.87502 -76.58929 37925 ft 443 kts 287°
2026-05-08 07:08 43.89932 -76.66798 37930 ft 446 kts 295°
2026-05-08 07:09 43.92811 -76.74362 37929 ft 447 kts 295°
2026-05-08 07:09 43.95710 -76.81989 37928 ft 447 kts 295°
2026-05-08 07:10 43.98588 -76.89630 37940 ft 447 kts 295°
2026-05-08 07:10 44.01456 -76.97292 37936 ft 447 kts 294°
2026-05-08 07:11 44.04320 -77.04973 37929 ft 448 kts 294°